Powrót do katalogu

THORAD AGENA D DEB

AktywnySSO
NORAD 4766·DEBRIS·🇺🇸 United States

Wystrzelony Apr 8, 1970 z Vandenberg Space Force Base

Loading…

Następne Przeloty (najbliższe 24 godziny)

TLE

ŚwieżeSource: Space-Track

Epoka: Sep 14, 2026, 09:48 UTC

1 04766U 70025DL  26257.40873417  .00000021  00000-0  97730-4 0  9996
2 04766 100.1470  53.2213 0009778 129.7925 259.6359 13.55960558788728

Śledź THORAD AGENA D DEB w czasie rzeczywistym z AllMySat

Download on the App Store